Weather History for Windsor Locks, CT

Change the Weather History Date:

Sunday, May 12, 2013

  Actual Average Record
Temperature  
Mean Temperature 60 °F 58 °F  
Max Temperature 72 °F 70 °F 90 °F (2004)
Min Temperature 47 °F 47 °F 32 °F (1983)
Degree Days  
Heating Degree Days 5 7  
Month to date heating degree days 66 105  
Since 1 July heating degree days 5559 5858  
Cooling Degree Days 0 1  
Month to date cooling degree days 1 5  
Year to date cooling degree days 1 11  
Growing Degree Days 12 (Base 50)    
Moisture  
Dew Point 46 °F    
Average Humidity 65    
Maximum Humidity 97    
Minimum Humidity 33    
Precipitation  
Precipitation 0.01 in 0.13 in 2.94 in (2006)
Month to date precipitation 0.85 1.49  
Year to date precipitation 10.63 14.95  
Snow  
Snow 0.00 in 0.00 in 0.00 in (2001)
Month to date snowfall 0.0 0.0  
Since 1 July snowfall 56.9 40.5  
Snow Depth 0.00 in    
Sea Level Pressure  
Sea Level Pressure 29.68 in    
Wind  
Wind Speed 9 mph (WNW)    
Max Wind Speed 25 mph    
Max Gust Speed 35 mph    
Visibility 9 miles    
Events Rain    
T = Trace of Precipitation, MM = Missing Value Source: NWS Daily Summary

Daily Weather History Graph

Daily Weather History Graph

Search for Another Location

Airport:

Trip Planner

Search our weather history database for the weather conditions in past years. The results will help you decide how hot, cold, wet, or windy it might be!

Date:

Astronomy

May. 12, 2013 Rise Set
Actual Time 5:33 AM EDT 8:01 PM EDT
Civil Twilight 5:01 AM EDT 8:33 PM EDT
Nautical Twilight 4:22 AM EDT 9:12 PM EDT
Astronomical Twilight 3:38 AM EDT 9:56 PM EDT
Moon 7:25 AM EDT (5/12) 10:26 PM EDT (5/12)
Length of Visible Light 15h 31m
Length of Day
14h 28m
Waxing Crescent, 6% of the Moon is Illuminated
May 12
Waxing Crescent
May 18
First Quarter
May 25
Full
May 31
Last Quarter
Jun 8
New

Hourly Weather History & Observations

Time (EDT) Temp. Dew Point Humidity Pressure Visibility Wind Dir Wind Speed Gust Speed Precip Events Conditions
12:51 AM 61.0 °F 59.0 °F 93% 29.67 in 6.0 mi SSE 6.9 mph - N/A   Overcast
1:51 AM 61.0 °F 59.0 °F 93% 29.66 in 6.0 mi SSE 5.8 mph - N/A   Overcast
2:05 AM 60.8 °F 59.0 °F 94% 29.67 in 5.0 mi SSE 8.1 mph - N/A   Overcast
2:51 AM 61.0 °F 59.0 °F 93% 29.65 in 4.0 mi SSE 8.1 mph - N/A   Overcast
3:16 AM 60.8 °F 59.0 °F 94% 29.64 in 4.0 mi South 5.8 mph - N/A   Overcast
3:44 AM 60.8 °F 59.0 °F 94% 29.63 in 4.0 mi SSW 3.5 mph - N/A   Overcast
3:51 AM 60.1 °F 59.0 °F 96% 29.65 in 4.0 mi SW 4.6 mph - N/A   Overcast
4:44 AM 60.8 °F 57.2 °F 88% 29.64 in 6.0 mi NNW 5.8 mph - 0.00 in Rain Light Rain
4:51 AM 60.1 °F 55.9 °F 86% 29.64 in 10.0 mi NW 8.1 mph - 0.00 in Rain Light Rain
5:28 AM 59.0 °F 51.8 °F 77% 29.65 in 10.0 mi Calm Calm - 0.00 in   Overcast
5:51 AM 57.9 °F 51.1 °F 78% 29.66 in 10.0 mi NW 5.8 mph - 0.00 in   Overcast
6:46 AM 57.2 °F 51.8 °F 82% 29.66 in 10.0 mi NNW 3.5 mph - N/A   Mostly Cloudy
6:51 AM 57.9 °F 51.1 °F 78% 29.66 in 10.0 mi NW 3.5 mph - N/A   Mostly Cloudy
7:51 AM 57.9 °F 51.1 °F 78% 29.67 in 10.0 mi Calm Calm - 0.01 in   Overcast
8:51 AM 57.9 °F 50.0 °F 75% 29.66 in 10.0 mi Calm Calm - N/A   Mostly Cloudy
9:51 AM 62.1 °F 50.0 °F 65% 29.65 in 10.0 mi NNW 8.1 mph - N/A   Mostly Cloudy
10:51 AM 63.0 °F 48.0 °F 58% 29.65 in 10.0 mi NW 4.6 mph - N/A   Mostly Cloudy
11:51 AM 64.0 °F 46.9 °F 54% 29.64 in 10.0 mi Calm Calm - N/A   Mostly Cloudy
12:51 PM 66.9 °F 48.0 °F 51% 29.62 in 10.0 mi SSW 8.1 mph - N/A   Mostly Cloudy
1:51 PM 71.1 °F 43.0 °F 36% 29.61 in 10.0 mi WSW 13.8 mph 19.6 mph N/A   Mostly Cloudy
2:51 PM 62.1 °F 45.0 °F 53% 29.63 in 10.0 mi WNW 20.7 mph 32.2 mph 0.00 in   Mostly Cloudy
3:51 PM 64.0 °F 42.1 °F 45% 29.65 in 10.0 mi WNW 16.1 mph 29.9 mph N/A   Scattered Clouds
4:51 PM 64.0 °F 37.9 °F 38% 29.66 in 10.0 mi WNW 20.7 mph 31.1 mph N/A   Scattered Clouds
5:51 PM 63.0 °F 35.1 °F 35% 29.68 in 10.0 mi WNW 17.3 mph 23.0 mph N/A   Partly Cloudy
6:51 PM 60.1 °F 34.0 °F 38% 29.71 in 10.0 mi NNW 10.4 mph - N/A   Scattered Clouds
7:51 PM 57.0 °F 28.0 °F 33% 29.74 in 10.0 mi WNW 9.2 mph - N/A   Scattered Clouds
8:51 PM 55.0 °F 28.0 °F 35% 29.77 in 10.0 mi West 8.1 mph - N/A   Partly Cloudy
9:51 PM 53.1 °F 27.0 °F 37% 29.81 in 10.0 mi WNW 12.7 mph - N/A   Partly Cloudy
10:51 PM 51.1 °F 25.0 °F 36% 29.84 in 10.0 mi WNW 12.7 mph - N/A   Clear
11:51 PM 48.9 °F 27.0 °F 43% 29.86 in 10.0 mi WNW 8.1 mph - N/A   Clear